Location: Vancouver
(49.2500°N, 123.1330°W)
Time: 17:12:58
(UTC-07:00)

Daily predictions for brighter satellites

Satellite Brightness Start Highest point End
(mag) Time Altitude Azimuth Time Altitude Azimuth Time Altitude Azimuth
COSMOS 2406 4.1 21:40:48 10° SW 21:46:26 58° WNW 21:52:05 10° NNE
Cosmos 1025 Rocket 3.0 21:42:49 10° S 21:47:05 87° E 21:51:24 10° N
Cosmos 1726 Rocket 3.6 21:43:37 10° N 21:47:57 71° E 21:52:15 10° SSE
DEBRIS 4.3 21:46:37 10° SW 21:50:34 63° SSE 22:05:11 10° ENE
COSMOS 2487 3.2 21:47:59 10° S 21:51:13 33° ESE 21:54:29 10° NE
SPOT 5 2.9 21:47:16 10° SSE 21:51:29 53° ENE 21:55:49 10° N
Cosmos 1656 3.7 21:48:38 10° NNW 21:54:07 77° ENE 21:59:37 10° SSE
Cosmos 1697 Rocket 3.0 21:50:06 10° NNW 21:55:41 60° ENE 22:01:14 10° SE
ISS -3.8 21:54:38 10° WSW 21:57:58 88° SSE 22:01:16 10° ENE
SL-08 RB Rocket 4.0 21:54:52 10° SSE 21:59:13 54° ENE 22:03:36 10° N
Cosmos 1452 Rocket 3.6 21:54:40 10° NNW 21:59:58 70° ENE 22:05:13 10° SSE
Cosmos 2369 3.9 21:55:21 10° NNW 22:01:05 73° WSW 22:06:46 10° SSE
USA 245 2.2 22:02:07 11° SSE 22:04:19 52° ENE 22:06:32 10° N
Cosmos 2341 Rocket 4.1 21:58:03 10° N 22:04:26 88° W 22:10:50 10° S
SL-16 R/B 3.9 22:00:50 10° N 22:05:19 23° NE 22:09:46 10° E
Meteor 1-29 4.4 22:04:09 10° N 22:07:22 40° WNW 22:10:32 10° SW
Iridium 43 3.9 22:05:28 10° N 22:07:36 41° E 22:09:28 13° SSE
ERS-1 Rocket 3.4 22:03:09 10° S 22:08:06 61° WSW 22:13:06 10° NNW
Cosmos 2058 Rocket 3.1 22:03:44 10° N 22:08:11 84° E 22:12:38 10° S
MetOp-A 4.3 22:05:11 10° S 22:10:33 77° WSW 22:15:57 10° NNW
ATLAS CENTAUR R/B 3.2 22:07:46 10° NNW 22:10:33 20° NNE 22:13:19 10° E
Cosmos 2218 Rocket 4.2 22:06:22 10° N 22:12:27 60° ENE 22:18:29 10° SSE
Cosmos 1271 Rocket 4.2 22:09:36 10° NNE 22:12:49 24° ENE 22:15:47 11° ESE
Cosmos 1437 Rocket 4.0 22:11:21 10° NNW 22:14:56 38° W 22:18:33 10° SSW
Cosmos 1833 Rocket 3.0 22:09:40 10° S 22:14:58 45° ESE 22:20:19 10° NE
SPOT 1/Viking Rocket 3.6 22:10:49 10° SSE 22:15:56 69° ENE 22:21:05 10° N
MOS 1-B Rocket 4.4 22:11:19 10° S 22:17:15 72° WSW 22:24:07 10° NNW
YAOGAN 11 4.3 22:17:36 10° S 22:21:54 70° WSW 22:26:17 10° NNW
Cosmos 1515 4.0 22:21:21 10° SSW 22:25:08 69° W 22:28:57 10° N
Cosmos 1812 Rocket 4.2 22:22:55 10° N 22:27:13 44° ENE 22:30:39 15° SE
H-2A R/B 2.9 22:25:55 14° SE 22:29:33 42° ENE 22:33:48 10° N
Cosmos 1066 Rocket 4.2 22:31:29 10° S 22:37:00 73° E 22:42:42 10° NNE
Cosmos 2181 Rocket 4.2 22:31:03 10° SSW 22:37:24 80° W 22:43:41 10° N
Meteor 2-21 4.4 22:33:28 10° N 22:39:34 84° E 22:44:59 13° S
Cosmos 1626 Rocket 3.7 22:35:56 13° S 22:39:40 56° E 22:43:56 10° NNE
USA 229 DEB 3.8 22:33:52 10° NW 22:41:01 90° NE 22:47:09 16° SE
USA 229 3.8 22:33:58 10° NW 22:41:08 89° ENE 22:47:15 16° SE
Tiangong 2 2.5 22:40:19 10° WSW 22:42:54 23° S 22:43:45 20° SSE
Cosmos 2360 Rocket 4.2 22:38:47 10° N 22:42:57 20° NE 22:47:06 10° E
Meteor 2-21 Rocket 4.4 22:38:22 10° N 22:44:27 76° E 22:49:31 15° SSE
Cosmos 1953 3.7 22:40:58 10° NNE 22:44:28 27° ENE 22:46:52 16° ESE
Cosmos 1980 Rocket 2.2 22:39:16 10° NNW 22:44:59 83° ENE 22:49:22 17° SSE
Cosmos 2228 3.8 22:41:12 10° NNW 22:45:20 47° W 22:49:25 10° SSW
ARGOS 3.9 22:44:17 10° S 22:49:30 49° W 22:54:47 10° NNW
USA 234 4.3 22:44:18 10° ENE 22:50:29 46° N 22:56:38 10° WNW
PSLV R/B 3.9 22:49:23 23° ESE 22:50:37 35° ENE 22:53:14 10° N
Cosmos 1766 3.2 22:46:57 10° N 22:50:53 74° E 22:53:28 20° SSE
Cosmos 2322 Rocket 3.0 22:51:21 10° NNW 22:56:49 44° NE 23:01:16 15° ESE
Landsat 7 4.0 22:57:46 16° S 23:01:30 71° WSW 23:06:16 10° NNW
SL-19 R/B 4.5 23:01:02 22° SE 23:03:24 57° ENE 23:06:54 10° N
H-2A R/B 2.5 22:59:16 13° S 23:03:33 54° W 23:08:34 10° NNW
Meteor 1-4 Rocket 3.8 23:00:53 10° NNW 23:04:12 36° W 23:06:54 14° SSW
Cosmos 1470 4.3 23:02:25 10° NNE 23:05:47 25° ENE 23:07:46 17° ESE
Lacrosse 5 rocket 2.0 23:02:20 10° NW 23:06:57 62° NNE 23:10:52 14° ESE
Meteor 1-21 4.3 23:06:06 16° S 23:10:42 70° E 23:16:28 10° NNE
Cosmos-2242 4.4 23:08:19 10° NNE 23:11:58 26° ENE 23:14:10 17° ESE
Cosmos 2366 rocket 4.4 23:08:18 10° NNW 23:14:21 58° W 23:19:41 13° SSW
Cosmos 1602 Rocket 3.8 23:11:37 13° SSW 23:15:30 67° WNW 23:19:50 10° N
Terra 1.9 23:13:16 20° S 23:16:31 71° WSW 23:21:18 10° NNW
CZ-3A R/B 2.4 23:15:41 10° WSW 23:15:41 10° WSW 23:15:41 10° WSW
Cosmos 1805 3.2 23:15:27 10° N 23:19:23 85° E 23:21:22 28° SSE
Cosmos 389 Rocket 2.5 23:21:47 10° N 23:25:15 66° ENE 23:26:33 34° SSE
Cosmos 2082 Rocket 2.9 23:20:40 10° SW 23:26:14 56° NW 23:31:49 10° NNE
deb Chang Zheng 4 3.5 23:22:07 10° NNE 23:26:27 78° ESE 23:29:07 23° S
Cosmos 1269 Rocket 4.0 23:21:50 11° SSW 23:26:52 88° ESE 23:32:13 10° NNE
Cosmos 1758 3.2 23:23:46 10° N 23:27:47 82° E 23:29:40 30° SSE
DMSP B5D2-2 4.3 23:23:36 10° N 23:28:54 73° WNW 23:33:46 12° SSW
Cosmos 1331 Rocket 4.0 23:27:00 10° NNW 23:32:12 78° ENE 23:35:07 26° SSE
Cosmos 1048 Rocket 4.0 23:28:34 10° SSW 23:33:38 80° WNW 23:38:52 10° NNE
Meteor 2-8 Rocket 4.5 23:29:45 21° S 23:33:56 70° E 23:40:04 10° NNE
ISS -3.0 23:31:22 10° W 23:34:37 53° N 23:37:52 10° E
Iridium 2 4.2 23:32:04 10° NNW 23:35:47 55° W 23:37:46 25° SSW
Cosmos 1110 Rocket 4.0 23:30:57 10° NNW 23:36:14 88° WSW 23:39:08 27° SSE
Cosmos 1697 Rocket 4.2 23:34:43 10° NW 23:39:15 26° WSW 23:43:07 13° SSW
Cosmos 1302 Rocket 4.4 23:36:18 10° NNW 23:41:31 58° ENE 23:44:33 24° SE
Spot 4 3.9 23:39:52 27° S 23:42:31 75° WSW 23:47:22 10° NNW
Lacrosse 5 2.6 23:43:44 29° SSE 23:44:39 31° SE 23:49:04 10° ENE
Cosmos 1271 Rocket 4.1 23:45:24 10° NNW 23:48:54 32° W 23:50:59 19° SW
ATLAS CENTAUR R/B 1.0 23:46:16 10° NW 23:49:57 70° SW 23:51:01 42° SSE
SL-16 R/B 2.2 23:44:27 10° NNW 23:50:10 85° WSW 23:53:16 28° SSE
Cosmos 1842 4.0 23:49:30 20° SW 23:51:59 48° WNW 23:55:51 10° N
DELTA 2 DEB (DPAF) 4.3 23:50:05 30° S 23:52:16 66° WSW 23:56:45 10° NNW
SeaSat 1 3.3 23:50:22 18° ESE 23:53:42 45° NE 23:58:24 10° NNW
